Location: Arpaise
(41.0333°N, 14.7333°E)
Time: 06:38:38
(UTC+00:00)

BREEZE-M DEB (TANK) - Pass Details

Date: 05 July 2020
Orbit: 426 x 13239 km, 46.0° (Epoch: 05 August)

Event Time Altitude Azimuth Distance (km) Brightness Sun altitude
Rises 22:47:50 0° 233° (SW) 9,726 8.8 -26.2°
Reaches altitude 10° 22:57:05 10° 232° (SW) 6,623 7.9 -26.3°
Maximum altitude 23:11:36 68° 154° (SSE) 1,248 4.2 -26.3°
Drops below altitude 10° 23:15:59 10° 71° (ENE) 2,139 6.0 -26.3°
Sets 23:17:28 0° 68° (ENE) 2,788 6.7 -26.2°
